Vertical_Velocity
2 1 2 5 6 3 -2 2 7 3 2 3 5 4 3 2 4 13 -6 13 0 10
4 3 0 10 6 5 6 0 6 3 1 4 6 5 1 2 4 9 8 -6 7 -9
2 -1 2 1 -0 3 9 1 5 1 3 3 3 6 5 2 4 7 2 1 -6 -10
1 -1 -2 -0 -1 1 2 1 7 6 6 11 5 3 4 8 5 8 2 15 -15 11
-3 -2 -3 -4 1 0 3 5 1 4 5 8 3 1 6 10 5 5 4 5 -16 5
-1 -5 -6 0 -0 3 1 -1 2 3 5 2 1 3 6 3 1 -0 3 6 4 -6
-2 -0 -0 -0 1 2 5 1 3 5 3 1 25 15 6 5 1 1 3 -0 -4 -2
-1 0 7 1 4 5 3 1 2 5 9 5 -7 4 13 2 2 1 0 -0 -3 -2
-4 4 7 2 3 8 5 0 5 2 0 8 2 -11 -0 5 3 -4 -2 -6 -13 0
-5 -3 -3 -2 2 3 2 5 0 -2 6 4 -14 2 3 -3 -1 1 -1 0 -4 3
4 2 1 1 -1 -1 2 -1 3 -1 1 6 5 9 -10 7 2 -9 -2 -7 4 5
5 3 6 2 1 8 2 -3 6 7 1 6 -7 -0 3 -0 4 -7 -12 7 3 0
2 3 0 -0 0 -6 4 8 1 -2 9 -4 2 -2 8 6 -8 -2 8 -1 -3 0
6 4 -1 -6 -2 5 3 -2 0 -2 -3 -3 3 -5 1 -2 5 2 -10 -7 3 3
Height
1447 1447 1449 1451 1454 1456 1459 1462 1467 1471 1475 1478 1481 1485 1490 1493 1495 1497 1501 1503 1504 1507
1442 1443 1444 1446 1447 1448 1451 1454 1458 1462 1466 1471 1475 1478 1482 1486 1489 1491 1492 1501 1499 1503
1438 1438 1439 1439 1440 1442 1444 1446 1450 1454 1457 1462 1466 1471 1475 1479 1483 1485 1488 1487 1496 1492
1431 1432 1433 1434 1435 1435 1437 1439 1443 1446 1449 1453 1457 1464 1469 1473 1476 1480 1481 1482 1492 1490
1425 1426 1427 1427 1428 1429 1430 1433 1436 1439 1444 1448 1453 1459 1463 1466 1470 1474 1478 1482 1485 1485
1417 1419 1420 1420 1421 1422 1424 1428 1431 1435 1439 1443 1448 1452 1457 1463 1468 1472 1475 1477 1478 1476
1409 1409 1410 1411 1413 1417 1419 1423 1428 1431 1434 1439 1446 1448 1452 1458 1463 1468 1471 1473 1476 1475
1402 1403 1403 1405 1409 1413 1416 1420 1424 1428 1432 1438 1441 1456 1451 1459 1461 1464 1467 1470 1471 1474
1401 1402 1402 1404 1408 1411 1413 1417 1422 1427 1432 1436 1442 1452 1455 1461 1460 1462 1466 1466 1468 1469
1401 1403 1405 1408 1411 1414 1415 1419 1422 1428 1435 1439 1444 1454 1455 1459 1458 1461 1463 1464 1466 1465
1404 1406 1408 1410 1413 1416 1420 1423 1426 1433 1438 1443 1444 1447 1454 1456 1454 1456 1460 1466 1466 1460
1410 1410 1411 1413 1416 1418 1422 1426 1432 1436 1440 1439 1446 1452 1453 1453 1450 1451 1460 1463 1459 1456
1416 1416 1417 1417 1423 1427 1432 1434 1437 1438 1441 1444 1447 1448 1450 1449 1450 1454 1455 1455 1457 1454
1422 1422 1424 1427 1431 1435 1435 1438 1440 1443 1443 1444 1445 1448 1449 1448 1450 1449 1450 1454 1453 1449